owner,sensor,date,latitude,longitude,vertical_datum,wind_speed,wind_to_direction,wind_speed_of_gust,qcFlag 
TCOON,ioos:station:TCOON:013:1,2019-09-01T00:24:00Z,27.4847,-97.3181,0.0,4.7,111.0,6.0,'11111222,11111222,11111222' 
TCOON,ioos:station:TCOON:013:1,2019-09-01T01:24:00Z,27.4847,-97.3181,0.0,4.0,106.0,5.5,'11111222,11111222,11111222' 
TCOON,ioos:station:TCOON:013:1,2019-09-01T02:24:00Z,27.4847,-97.3181,0.0,4.4,98.0,5.0,'11111222,11111222,11111222' 
TCOON,ioos:station:TCOON:013:1,2019-09-01T03:24:00Z,27.4847,-97.3181,0.0,3.9,94.0,5.4,'11111222,11111222,11111222' 
TCOON,ioos:station:TCOON:013:1,2019-09-01T04:24:00Z,27.4847,-97.3181,0.0,3.8,99.0,4.6,'11111222,11111222,11111222' 
TCOON,ioos:station:TCOON:013:1,2019-09-01T05:24:00Z,27.4847,-97.3181,0.0,3.5,110.0,4.4,'11111222,11111222,11111222' 
TCOON,ioos:station:TCOON:013:1,2019-09-01T06:24:00Z,27.4847,-97.3181,0.0,3.4,125.0,5.3,'11111222,11111222,11111222' 
TCOON,ioos:station:TCOON:013:1,2019-09-01T07:24:00Z,27.4847,-97.3181,0.0,2.7,134.0,3.3,'11111222,11111222,11111222' 
TCOON,ioos:station:TCOON:013:1,2019-09-01T08:24:00Z,27.4847,-97.3181,0.0,2.4,140.0,3.2,'11111222,11111222,11111222' 
TCOON,ioos:station:TCOON:013:1,2019-09-01T09:24:00Z,27.4847,-97.3181,0.0,1.3,153.0,1.5,'11111222,11111222,11111222' 
TCOON,ioos:station:TCOON:013:1,2019-09-01T10:24:00Z,27.4847,-97.3181,0.0,0.8,167.0,1.2,'11111222,11111222,11111222' 
TCOON,ioos:station:TCOON:013:1,2019-09-01T11:24:00Z,27.4847,-97.3181,0.0,2.2,304.0,2.5,'11111222,11111222,11111222' 
TCOON,ioos:station:TCOON:013:1,2019-09-01T12:24:00Z,27.4847,-97.3181,0.0,1.9,7.0,2.3,'11111222,11111222,11111222' 
TCOON,ioos:station:TCOON:013:1,2019-09-01T13:24:00Z,27.4847,-97.3181,0.0,4.3,329.0,4.7,'11111222,11111222,11111222' 
TCOON,ioos:station:TCOON:013:1,2019-09-01T14:24:00Z,27.4847,-97.3181,0.0,4.0,8.0,4.6,'11111222,11111222,11111222' 
TCOON,ioos:station:TCOON:013:1,2019-09-01T15:24:00Z,27.4847,-97.3181,0.0,4.8,10.0,5.6,'11111222,11111222,11111222' 
TCOON,ioos:station:TCOON:013:1,2019-09-01T16:24:00Z,27.4847,-97.3181,0.0,4.4,10.0,5.7,'11111222,11111222,11111222' 
TCOON,ioos:station:TCOON:013:1,2019-09-01T17:24:00Z,27.4847,-97.3181,0.0,5.2,71.0,6.4,'11111222,11111222,11111222' 
TCOON,ioos:station:TCOON:013:1,2019-09-01T18:24:00Z,27.4847,-97.3181,0.0,6.0,67.0,8.0,'11111222,11111222,11111222' 
TCOON,ioos:station:TCOON:013:1,2019-09-01T19:24:00Z,27.4847,-97.3181,0.0,6.4,70.0,7.6,'11111222,11111222,11111222' 
TCOON,ioos:station:TCOON:013:1,2019-09-01T20:24:00Z,27.4847,-97.3181,0.0,6.0,66.0,7.4,'11111222,11111222,11111222' 
TCOON,ioos:station:TCOON:013:1,2019-09-01T21:24:00Z,27.4847,-97.3181,0.0,6.0,86.0,8.7,'11111222,11111222,11111222' 
TCOON,ioos:station:TCOON:013:1,2019-09-01T22:24:00Z,27.4847,-97.3181,0.0,5.8,96.0,7.1,'11111222,11111222,11111222' 
TCOON,ioos:station:TCOON:013:1,2019-09-01T23:24:00Z,27.4847,-97.3181,0.0,5.4,83.0,6.8,'11111222,11111222,11111222' 
TCOON,ioos:station:TCOON:013:1,2019-09-02T00:24:00Z,27.4847,-97.3181,0.0,4.4,101.0,5.1,'11111222,11111222,11111222' 
TCOON,ioos:station:TCOON:013:1,2019-09-02T01:24:00Z,27.4847,-97.3181,0.0,4.5,90.0,6.0,'11111222,11111222,11111222' 
TCOON,ioos:station:TCOON:013:1,2019-09-02T02:24:00Z,27.4847,-97.3181,0.0,4.8,86.0,6.5,'11111222,11111222,11111222' 
TCOON,ioos:station:TCOON:013:1,2019-09-02T03:24:00Z,27.4847,-97.3181,0.0,5.4,90.0,6.4,'11111222,11111222,11111222' 
TCOON,ioos:station:TCOON:013:1,2019-09-02T04:24:00Z,27.4847,-97.3181,0.0,5.1,89.0,6.7,'11111222,11111222,11111222' 
TCOON,ioos:station:TCOON:013:1,2019-09-02T05:24:00Z,27.4847,-97.3181,0.0,5.2,87.0,6.5,'11111222,11111222,11111222' 
TCOON,ioos:station:TCOON:013:1,2019-09-02T06:24:00Z,27.4847,-97.3181,0.0,4.5,82.0,5.2,'11111222,11111222,11111222' 
TCOON,ioos:station:TCOON:013:1,2019-09-02T07:24:00Z,27.4847,-97.3181,0.0,3.3,81.0,3.8,'11111222,11111222,11111222' 
TCOON,ioos:station:TCOON:013:1,2019-09-02T08:24:00Z,27.4847,-97.3181,0.0,2.0,66.0,2.3,'11111222,11111222,11111222' 
TCOON,ioos:station:TCOON:013:1,2019-09-02T09:24:00Z,27.4847,-97.3181,0.0,2.4,73.0,2.8,'11111222,11111222,11111222' 
TCOON,ioos:station:TCOON:013:1,2019-09-02T10:24:00Z,27.4847,-97.3181,0.0,2.5,54.0,3.3,'11111222,11111222,11111222' 
TCOON,ioos:station:TCOON:013:1,2019-09-02T11:24:00Z,27.4847,-97.3181,0.0,3.1,32.0,3.6,'11111222,11111222,11111222' 
TCOON,ioos:station:TCOON:013:1,2019-09-02T12:24:00Z,27.4847,-97.3181,0.0,3.0,1.0,3.8,'11111222,11111222,11111222' 
TCOON,ioos:station:TCOON:013:1,2019-09-02T15:24:00Z,27.4847,-97.3181,0.0,6.6,12.0,8.0,'11111222,11111222,11111222' 
TCOON,ioos:station:TCOON:013:1,2019-09-02T16:24:00Z,27.4847,-97.3181,0.0,7.1,11.0,8.8,'11111222,11111222,11111222' 
TCOON,ioos:station:TCOON:013:1,2019-09-02T17:24:00Z,27.4847,-97.3181,0.0,7.6,18.0,8.7,'11111222,11111222,11111222' 
TCOON,ioos:station:TCOON:013:1,2019-09-02T18:24:00Z,27.4847,-97.3181,0.0,7.4,43.0,9.1,'11111222,11111222,11111222' 
TCOON,ioos:station:TCOON:013:1,2019-09-02T19:24:00Z,27.4847,-97.3181,0.0,7.2,60.0,9.6,'11111222,11111222,11111222' 
TCOON,ioos:station:TCOON:013:1,2019-09-02T20:24:00Z,27.4847,-97.3181,0.0,7.2,71.0,10.0,'11111222,11111222,11111222' 
TCOON,ioos:station:TCOON:013:1,2019-09-02T21:24:00Z,27.4847,-97.3181,0.0,7.5,65.0,10.1,'11111222,11111222,11111222' 
TCOON,ioos:station:TCOON:013:1,2019-09-02T22:30:00Z,27.4847,-97.3181,0.0,8.1,71.0,10.1,'11111222,11111222,11111222' 
TCOON,ioos:station:TCOON:013:1,2019-09-02T23:24:00Z,27.4847,-97.3181,0.0,7.4,80.0,8.8,'11111222,11111222,11111222' 
TCOON,ioos:station:TCOON:013:1,2019-09-03T00:24:00Z,27.4847,-97.3181,0.0,7.6,69.0,8.5,'11111222,11111222,11111222' 
TCOON,ioos:station:TCOON:013:1,2019-09-03T01:24:00Z,27.4847,-97.3181,0.0,5.3,77.0,7.0,'11111222,11111222,11111222' 
TCOON,ioos:station:TCOON:013:1,2019-09-03T02:24:00Z,27.4847,-97.3181,0.0,6.5,77.0,7.9,'11111222,11111222,11111222' 
TCOON,ioos:station:TCOON:013:1,2019-09-03T03:24:00Z,27.4847,-97.3181,0.0,6.8,80.0,7.6,'11111222,11111222,11111222' 
TCOON,ioos:station:TCOON:013:1,2019-09-03T04:24:00Z,27.4847,-97.3181,0.0,7.4,80.0,8.8,'11111222,11111222,11111222' 
TCOON,ioos:station:TCOON:013:1,2019-09-03T05:24:00Z,27.4847,-97.3181,0.0,5.0,85.0,6.3,'11111222,11111222,11111222' 
TCOON,ioos:station:TCOON:013:1,2019-09-03T06:24:00Z,27.4847,-97.3181,0.0,5.5,78.0,6.3,'11111222,11111222,11111222' 
TCOON,ioos:station:TCOON:013:1,2019-09-03T07:24:00Z,27.4847,-97.3181,0.0,4.0,71.0,4.6,'11111222,11111222,11111222' 
TCOON,ioos:station:TCOON:013:1,2019-09-03T08:24:00Z,27.4847,-97.3181,0.0,2.7,46.0,3.2,'11111222,11111222,11111222' 
TCOON,ioos:station:TCOON:013:1,2019-09-03T09:24:00Z,27.4847,-97.3181,0.0,2.3,49.0,3.0,'11111222,11111222,11111222' 
TCOON,ioos:station:TCOON:013:1,2019-09-03T10:24:00Z,27.4847,-97.3181,0.0,3.0,7.0,3.6,'11111222,11111222,11111222' 
TCOON,ioos:station:TCOON:013:1,2019-09-03T11:24:00Z,27.4847,-97.3181,0.0,4.9,316.0,5.5,'11111222,11111222,11111222' 
TCOON,ioos:station:TCOON:013:1,2019-09-03T12:24:00Z,27.4847,-97.3181,0.0,5.4,325.0,6.2,'11111222,11111222,11111222' 
TCOON,ioos:station:TCOON:013:1,2019-09-03T13:24:00Z,27.4847,-97.3181,0.0,6.0,5.0,6.9,'11111222,11111222,11111222' 
TCOON,ioos:station:TCOON:013:1,2019-09-03T14:30:00Z,27.4847,-97.3181,0.0,7.3,9.0,9.3,'11111222,11111222,11111222' 
TCOON,ioos:station:TCOON:013:1,2019-09-03T15:30:00Z,27.4847,-97.3181,0.0,7.1,13.0,8.8,'11111222,11111222,11111222' 
TCOON,ioos:station:TCOON:013:1,2019-09-03T16:30:00Z,27.4847,-97.3181,0.0,8.0,19.0,9.4,'11111222,11111222,11111222' 
TCOON,ioos:station:TCOON:013:1,2019-09-03T17:30:00Z,27.4847,-97.3181,0.0,7.5,6.0,8.9,'11111222,11111222,11111222' 
TCOON,ioos:station:TCOON:013:1,2019-09-03T18:30:00Z,27.4847,-97.3181,0.0,7.1,19.0,8.4,'11111222,11111222,11111222' 
TCOON,ioos:station:TCOON:013:1,2019-09-03T19:30:00Z,27.4847,-97.3181,0.0,7.8,47.0,10.1,'11111222,11111222,11111222' 
TCOON,ioos:station:TCOON:013:1,2019-09-03T20:30:00Z,27.4847,-97.3181,0.0,8.0,47.0,10.0,'11111222,11111222,11111222' 
TCOON,ioos:station:TCOON:013:1,2019-09-03T21:30:00Z,27.4847,-97.3181,0.0,8.9,51.0,11.9,'11111222,11111222,11111222' 
TCOON,ioos:station:TCOON:013:1,2019-09-03T22:30:00Z,27.4847,-97.3181,0.0,7.3,56.0,9.6,'11111222,11111222,11111222' 
TCOON,ioos:station:TCOON:013:1,2019-09-03T23:24:00Z,27.4847,-97.3181,0.0,9.3,62.0,10.3,'11111222,11111222,11111222' 
TCOON,ioos:station:TCOON:013:1,2019-09-04T00:24:00Z,27.4847,-97.3181,0.0,8.5,68.0,10.2,'11111222,11111222,11111222' 
TCOON,ioos:station:TCOON:013:1,2019-09-04T01:24:00Z,27.4847,-97.3181,0.0,7.5,79.0,9.3,'11111222,11111222,11111222' 
TCOON,ioos:station:TCOON:013:1,2019-09-04T02:24:00Z,27.4847,-97.3181,0.0,6.0,60.0,7.4,'11111222,11111222,11111222' 
TCOON,ioos:station:TCOON:013:1,2019-09-04T03:24:00Z,27.4847,-97.3181,0.0,7.6,63.0,10.1,'11111222,11111222,11111222' 
TCOON,ioos:station:TCOON:013:1,2019-09-04T04:24:00Z,27.4847,-97.3181,0.0,7.6,65.0,10.1,'11111222,11111222,11111222' 
TCOON,ioos:station:TCOON:013:1,2019-09-04T05:24:00Z,27.4847,-97.3181,0.0,7.6,62.0,9.7,'11111222,11111222,11111222' 
TCOON,ioos:station:TCOON:013:1,2019-09-04T06:24:00Z,27.4847,-97.3181,0.0,6.9,59.0,9.5,'11111222,11111222,11111222' 
TCOON,ioos:station:TCOON:013:1,2019-09-04T07:24:00Z,27.4847,-97.3181,0.0,7.9,60.0,9.5,'11111222,11111222,11111222' 
TCOON,ioos:station:TCOON:013:1,2019-09-04T08:24:00Z,27.4847,-97.3181,0.0,7.4,56.0,9.0,'11111222,11111222,11111222' 
TCOON,ioos:station:TCOON:013:1,2019-09-04T09:24:00Z,27.4847,-97.3181,0.0,9.1,63.0,10.6,'11111222,11111222,11111222' 
TCOON,ioos:station:TCOON:013:1,2019-09-04T10:24:00Z,27.4847,-97.3181,0.0,8.8,61.0,10.6,'11111222,11111222,11111222' 
TCOON,ioos:station:TCOON:013:1,2019-09-04T11:24:00Z,27.4847,-97.3181,0.0,10.4,61.0,12.4,'11111222,11111222,11111222' 
TCOON,ioos:station:TCOON:013:1,2019-09-04T12:24:00Z,27.4847,-97.3181,0.0,9.9,58.0,14.3,'11111222,11111222,11111222' 
TCOON,ioos:station:TCOON:013:1,2019-09-04T13:24:00Z,27.4847,-97.3181,0.0,9.2,65.0,11.2,'11111222,11111222,11111222' 
TCOON,ioos:station:TCOON:013:1,2019-09-04T14:30:00Z,27.4847,-97.3181,0.0,9.0,58.0,12.1,'11111222,11111222,11111222' 
TCOON,ioos:station:TCOON:013:1,2019-09-04T15:24:00Z,27.4847,-97.3181,0.0,8.2,54.0,11.6,'11111222,11111222,11111222' 
TCOON,ioos:station:TCOON:013:1,2019-09-04T16:24:00Z,27.4847,-97.3181,0.0,10.2,53.0,12.7,'11111222,11111222,11111222' 
TCOON,ioos:station:TCOON:013:1,2019-09-04T17:30:00Z,27.4847,-97.3181,0.0,11.7,58.0,15.2,'11111222,11111222,11111222' 
TCOON,ioos:station:TCOON:013:1,2019-09-04T18:24:00Z,27.4847,-97.3181,0.0,12.3,56.0,14.8,'11111222,11111222,11111222' 
TCOON,ioos:station:TCOON:013:1,2019-09-04T19:30:00Z,27.4847,-97.3181,0.0,11.5,64.0,15.0,'11111222,11111222,11111222' 
TCOON,ioos:station:TCOON:013:1,2019-09-04T20:24:00Z,27.4847,-97.3181,0.0,12.1,71.0,13.9,'11111222,11111222,11111222' 
TCOON,ioos:station:TCOON:013:1,2019-09-04T21:24:00Z,27.4847,-97.3181,0.0,12.2,70.0,14.9,'11111222,11111222,11111222' 
TCOON,ioos:station:TCOON:013:1,2019-09-04T22:24:00Z,27.4847,-97.3181,0.0,10.7,73.0,12.7,'11111222,11111222,11111222' 
TCOON,ioos:station:TCOON:013:1,2019-09-04T23:24:00Z,27.4847,-97.3181,0.0,10.7,71.0,13.0,'11111222,11111222,11111222' 
TCOON,ioos:station:TCOON:013:1,2019-09-05T00:24:00Z,27.4847,-97.3181,0.0,9.8,72.0,11.8,'11111222,11111222,11111222' 
TCOON,ioos:station:TCOON:013:1,2019-09-05T01:24:00Z,27.4847,-97.3181,0.0,7.7,89.0,10.5,'11111222,11111222,11111222' 
TCOON,ioos:station:TCOON:013:1,2019-09-05T02:24:00Z,27.4847,-97.3181,0.0,7.3,81.0,9.5,'11111222,11111222,11111222' 
TCOON,ioos:station:TCOON:013:1,2019-09-05T03:24:00Z,27.4847,-97.3181,0.0,8.9,78.0,10.9,'11111222,11111222,11111222' 
TCOON,ioos:station:TCOON:013:1,2019-09-05T04:24:00Z,27.4847,-97.3181,0.0,8.4,84.0,10.2,'11111222,11111222,11111222' 
TCOON,ioos:station:TCOON:013:1,2019-09-05T05:24:00Z,27.4847,-97.3181,0.0,8.2,88.0,10.8,'11111222,11111222,11111222' 
TCOON,ioos:station:TCOON:013:1,2019-09-05T06:24:00Z,27.4847,-97.3181,0.0,7.9,91.0,9.2,'11111222,11111222,11111222' 
TCOON,ioos:station:TCOON:013:1,2019-09-05T07:24:00Z,27.4847,-97.3181,0.0,7.2,98.0,8.7,'11111222,11111222,11111222' 
TCOON,ioos:station:TCOON:013:1,2019-09-05T08:24:00Z,27.4847,-97.3181,0.0,5.7,94.0,8.2,'11111222,11111222,11111222' 
TCOON,ioos:station:TCOON:013:1,2019-09-05T09:24:00Z,27.4847,-97.3181,0.0,4.8,141.0,5.6,'11111222,11111222,11111222' 
TCOON,ioos:station:TCOON:013:1,2019-09-05T10:24:00Z,27.4847,-97.3181,0.0,3.5,159.0,4.5,'11111222,11111222,11111222' 
TCOON,ioos:station:TCOON:013:1,2019-09-05T11:24:00Z,27.4847,-97.3181,0.0,4.9,114.0,7.6,'11111222,11111222,11111222' 
TCOON,ioos:station:TCOON:013:1,2019-09-05T12:24:00Z,27.4847,-97.3181,0.0,4.6,93.0,6.3,'11111222,11111222,11111222' 
TCOON,ioos:station:TCOON:013:1,2019-09-05T13:24:00Z,27.4847,-97.3181,0.0,3.2,39.0,4.0,'11111222,11111222,11111222' 
TCOON,ioos:station:TCOON:013:1,2019-09-05T14:24:00Z,27.4847,-97.3181,0.0,5.7,50.0,6.9,'11111222,11111222,11111222' 
TCOON,ioos:station:TCOON:013:1,2019-09-05T15:24:00Z,27.4847,-97.3181,0.0,2.6,64.0,3.7,'11111222,11111222,11111222' 
TCOON,ioos:station:TCOON:013:1,2019-09-05T16:24:00Z,27.4847,-97.3181,0.0,6.0,79.0,7.2,'11111222,11111222,11111222' 
TCOON,ioos:station:TCOON:013:1,2019-09-05T17:30:00Z,27.4847,-97.3181,0.0,5.6,77.0,7.0,'11111222,11111222,11111222' 
TCOON,ioos:station:TCOON:013:1,2019-09-05T18:30:00Z,27.4847,-97.3181,0.0,6.6,83.0,7.5,'11111222,11111222,11111222' 
TCOON,ioos:station:TCOON:013:1,2019-09-05T19:24:00Z,27.4847,-97.3181,0.0,5.8,79.0,6.8,'11111222,11111222,11111222' 
TCOON,ioos:station:TCOON:013:1,2019-09-05T20:24:00Z,27.4847,-97.3181,0.0,2.7,51.0,3.5,'11111222,11111222,11111222' 
TCOON,ioos:station:TCOON:013:1,2019-09-05T21:24:00Z,27.4847,-97.3181,0.0,3.4,68.0,4.7,'11111222,11111222,11111222' 
TCOON,ioos:station:TCOON:013:1,2019-09-05T22:24:00Z,27.4847,-97.3181,0.0,3.9,75.0,5.0,'11111222,11111222,11111222' 
TCOON,ioos:station:TCOON:013:1,2019-09-05T23:24:00Z,27.4847,-97.3181,0.0,4.5,89.0,5.3,'11111222,11111222,11111222' 
TCOON,ioos:station:TCOON:013:1,2019-09-06T00:24:00Z,27.4847,-97.3181,0.0,3.6,101.0,4.5,'11111222,11111222,11111222' 
TCOON,ioos:station:TCOON:013:1,2019-09-06T01:24:00Z,27.4847,-97.3181,0.0,2.6,110.0,3.4,'11111222,11111222,11111222' 
TCOON,ioos:station:TCOON:013:1,2019-09-06T02:24:00Z,27.4847,-97.3181,0.0,2.5,117.0,3.1,'11111222,11111222,11111222' 
TCOON,ioos:station:TCOON:013:1,2019-09-06T03:24:00Z,27.4847,-97.3181,0.0,2.0,119.0,2.4,'11111222,11111222,11111222' 
TCOON,ioos:station:TCOON:013:1,2019-09-06T04:24:00Z,27.4847,-97.3181,0.0,2.4,117.0,3.0,'11111222,11111222,11111222' 
TCOON,ioos:station:TCOON:013:1,2019-09-06T06:42:00Z,27.4847,-97.3181,0.0,2.3,120.0,2.8,'11111222,11111222,11111222' 
TCOON,ioos:station:TCOON:013:1,2019-09-06T07:42:00Z,27.4847,-97.3181,0.0,2.0,122.0,2.3,'11111222,11111222,11111222' 
TCOON,ioos:station:TCOON:013:1,2019-09-06T08:24:00Z,27.4847,-97.3181,0.0,1.9,148.0,2.3,'11111222,11111222,11111222' 
TCOON,ioos:station:TCOON:013:1,2019-09-06T09:24:00Z,27.4847,-97.3181,0.0,1.1,160.0,1.4,'11111222,11111222,11111222' 
TCOON,ioos:station:TCOON:013:1,2019-09-06T10:24:00Z,27.4847,-97.3181,0.0,0.4,209.0,0.4,'11111222,11111222,11111222' 
TCOON,ioos:station:TCOON:013:1,2019-09-06T11:24:00Z,27.4847,-97.3181,0.0,1.1,11.0,1.4,'11111222,11111222,11111222' 
TCOON,ioos:station:TCOON:013:1,2019-09-06T12:24:00Z,27.4847,-97.3181,0.0,1.2,32.0,1.4,'11111222,11111222,11111222' 
TCOON,ioos:station:TCOON:013:1,2019-09-06T13:24:00Z,27.4847,-97.3181,0.0,1.9,7.0,2.1,'11111222,11111222,11111222' 
TCOON,ioos:station:TCOON:013:1,2019-09-06T14:24:00Z,27.4847,-97.3181,0.0,2.6,5.0,3.1,'11111222,11111222,11111222' 
TCOON,ioos:station:TCOON:013:1,2019-09-06T15:24:00Z,27.4847,-97.3181,0.0,2.3,87.0,4.1,'11111222,11111222,11111222' 
TCOON,ioos:station:TCOON:013:1,2019-09-06T16:30:00Z,27.4847,-97.3181,0.0,2.3,93.0,5.3,'11111222,11111222,11111222' 
TCOON,ioos:station:TCOON:013:1,2019-09-06T17:24:00Z,27.4847,-97.3181,0.0,3.8,80.0,6.5,'11111222,11111222,11111222' 
TCOON,ioos:station:TCOON:013:1,2019-09-06T18:24:00Z,27.4847,-97.3181,0.0,4.1,89.0,6.5,'11111222,11111222,11111222' 
TCOON,ioos:station:TCOON:013:1,2019-09-06T19:24:00Z,27.4847,-97.3181,0.0,4.4,95.0,6.8,'11111222,11111222,11111222' 
TCOON,ioos:station:TCOON:013:1,2019-09-06T20:24:00Z,27.4847,-97.3181,0.0,4.6,88.0,6.8,'11111222,11111222,11111222' 
TCOON,ioos:station:TCOON:013:1,2019-09-06T21:24:00Z,27.4847,-97.3181,0.0,5.5,107.0,7.6,'11111222,11111222,11111222' 
TCOON,ioos:station:TCOON:013:1,2019-09-06T22:24:00Z,27.4847,-97.3181,0.0,5.9,121.0,7.2,'11111222,11111222,11111222' 
TCOON,ioos:station:TCOON:013:1,2019-09-06T23:24:00Z,27.4847,-97.3181,0.0,5.3,125.0,6.5,'11111222,11111222,11111222' 
TCOON,ioos:station:TCOON:013:1,2019-09-07T00:24:00Z,27.4847,-97.3181,0.0,5.3,105.0,6.3,'11111222,11111222,11111222' 
TCOON,ioos:station:TCOON:013:1,2019-09-07T01:24:00Z,27.4847,-97.3181,0.0,3.7,108.0,4.3,'11111222,11111222,11111222' 
TCOON,ioos:station:TCOON:013:1,2019-09-07T02:24:00Z,27.4847,-97.3181,0.0,3.9,114.0,4.8,'11111222,11111222,11111222' 
TCOON,ioos:station:TCOON:013:1,2019-09-07T03:24:00Z,27.4847,-97.3181,0.0,5.2,127.0,6.3,'11111222,11111222,11111222' 
TCOON,ioos:station:TCOON:013:1,2019-09-07T04:24:00Z,27.4847,-97.3181,0.0,5.9,135.0,7.2,'11111222,11111222,11111222' 
TCOON,ioos:station:TCOON:013:1,2019-09-07T05:24:00Z,27.4847,-97.3181,0.0,5.0,152.0,6.2,'11111222,11111222,11111222' 
TCOON,ioos:station:TCOON:013:1,2019-09-07T06:24:00Z,27.4847,-97.3181,0.0,4.2,165.0,5.4,'11111222,11111222,11111222' 
TCOON,ioos:station:TCOON:013:1,2019-09-07T07:24:00Z,27.4847,-97.3181,0.0,4.3,163.0,4.9,'11111222,11111222,11111222' 
TCOON,ioos:station:TCOON:013:1,2019-09-07T08:24:00Z,27.4847,-97.3181,0.0,4.3,157.0,5.7,'11111222,11111222,11111222' 
TCOON,ioos:station:TCOON:013:1,2019-09-07T09:24:00Z,27.4847,-97.3181,0.0,3.5,175.0,4.0,'11111222,11111222,11111222' 
TCOON,ioos:station:TCOON:013:1,2019-09-07T10:24:00Z,27.4847,-97.3181,0.0,3.5,173.0,4.2,'11111222,11111222,11111222' 
TCOON,ioos:station:TCOON:013:1,2019-09-07T11:24:00Z,27.4847,-97.3181,0.0,4.6,219.0,5.2,'11111222,11111222,11111222' 
TCOON,ioos:station:TCOON:013:1,2019-09-07T12:24:00Z,27.4847,-97.3181,0.0,3.1,237.0,4.0,'11111222,11111222,11111222' 
TCOON,ioos:station:TCOON:013:1,2019-09-07T13:24:00Z,27.4847,-97.3181,0.0,2.6,309.0,3.0,'11111222,11111222,11111222' 
TCOON,ioos:station:TCOON:013:1,2019-09-07T14:24:00Z,27.4847,-97.3181,0.0,1.7,289.0,2.0,'11111222,11111222,11111222' 
TCOON,ioos:station:TCOON:013:1,2019-09-07T15:24:00Z,27.4847,-97.3181,0.0,0.7,303.0,0.9,'11111222,11111222,11111222' 
TCOON,ioos:station:TCOON:013:1,2019-09-07T16:24:00Z,27.4847,-97.3181,0.0,0.9,247.0,1.5,'11111222,11111222,11111222' 
TCOON,ioos:station:TCOON:013:1,2019-09-07T17:24:00Z,27.4847,-97.3181,0.0,3.0,102.0,4.6,'11111222,11111222,11111222' 
TCOON,ioos:station:TCOON:013:1,2019-09-07T18:24:00Z,27.4847,-97.3181,0.0,3.2,119.0,5.6,'11111222,11111222,11111222' 
TCOON,ioos:station:TCOON:013:1,2019-09-07T19:24:00Z,27.4847,-97.3181,0.0,4.0,123.0,5.6,'11111222,11111222,11111222' 
TCOON,ioos:station:TCOON:013:1,2019-09-07T20:24:00Z,27.4847,-97.3181,0.0,4.5,120.0,6.3,'11111222,11111222,11111222' 
TCOON,ioos:station:TCOON:013:1,2019-09-07T21:24:00Z,27.4847,-97.3181,0.0,6.9,107.0,8.3,'11111222,11111222,11111222' 
TCOON,ioos:station:TCOON:013:1,2019-09-07T22:24:00Z,27.4847,-97.3181,0.0,6.7,130.0,8.6,'11111222,11111222,11111222' 
TCOON,ioos:station:TCOON:013:1,2019-09-07T23:24:00Z,27.4847,-97.3181,0.0,6.4,129.0,8.7,'11111222,11111222,11111222' 
TCOON,ioos:station:TCOON:013:1,2019-09-08T00:24:00Z,27.4847,-97.3181,0.0,7.0,134.0,7.8,'11111222,11111222,11111222' 
TCOON,ioos:station:TCOON:013:1,2019-09-08T01:24:00Z,27.4847,-97.3181,0.0,6.2,132.0,8.1,'11111222,11111222,11111222' 
TCOON,ioos:station:TCOON:013:1,2019-09-08T02:24:00Z,27.4847,-97.3181,0.0,6.3,130.0,8.0,'11111222,11111222,11111222' 
TCOON,ioos:station:TCOON:013:1,2019-09-08T03:24:00Z,27.4847,-97.3181,0.0,6.7,145.0,7.6,'11111222,11111222,11111222' 
TCOON,ioos:station:TCOON:013:1,2019-09-08T04:24:00Z,27.4847,-97.3181,0.0,6.1,146.0,7.1,'11111222,11111222,11111222' 
TCOON,ioos:station:TCOON:013:1,2019-09-08T05:24:00Z,27.4847,-97.3181,0.0,5.9,147.0,7.4,'11111222,11111222,11111222' 
TCOON,ioos:station:TCOON:013:1,2019-09-08T06:24:00Z,27.4847,-97.3181,0.0,4.8,158.0,7.2,'11111222,11111222,11111222' 
TCOON,ioos:station:TCOON:013:1,2019-09-08T07:24:00Z,27.4847,-97.3181,0.0,5.8,156.0,7.3,'11111222,11111222,11111222' 
TCOON,ioos:station:TCOON:013:1,2019-09-08T08:24:00Z,27.4847,-97.3181,0.0,5.5,156.0,6.9,'11111222,11111222,11111222' 
TCOON,ioos:station:TCOON:013:1,2019-09-08T09:24:00Z,27.4847,-97.3181,0.0,4.8,160.0,5.9,'11111222,11111222,11111222' 
TCOON,ioos:station:TCOON:013:1,2019-09-08T10:24:00Z,27.4847,-97.3181,0.0,4.5,192.0,6.2,'11111222,11111222,11111222' 
TCOON,ioos:station:TCOON:013:1,2019-09-08T11:24:00Z,27.4847,-97.3181,0.0,2.9,175.0,3.5,'11111222,11111222,11111222' 
TCOON,ioos:station:TCOON:013:1,2019-09-08T12:24:00Z,27.4847,-97.3181,0.0,2.3,180.0,3.0,'11111222,11111222,11111222' 
TCOON,ioos:station:TCOON:013:1,2019-09-08T13:24:00Z,27.4847,-97.3181,0.0,4.8,153.0,5.9,'11111222,11111222,11111222' 
TCOON,ioos:station:TCOON:013:1,2019-09-08T14:24:00Z,27.4847,-97.3181,0.0,6.7,143.0,7.6,'11111222,11111222,11111222' 
TCOON,ioos:station:TCOON:013:1,2019-09-08T15:24:00Z,27.4847,-97.3181,0.0,6.4,136.0,7.6,'11111222,11111222,11111222' 
TCOON,ioos:station:TCOON:013:1,2019-09-08T16:24:00Z,27.4847,-97.3181,0.0,7.2,137.0,9.2,'11111222,11111222,11111222' 
TCOON,ioos:station:TCOON:013:1,2019-09-08T17:24:00Z,27.4847,-97.3181,0.0,7.8,138.0,9.6,'11111222,11111222,11111222' 
TCOON,ioos:station:TCOON:013:1,2019-09-08T18:24:00Z,27.4847,-97.3181,0.0,7.9,156.0,9.9,'11111222,11111222,11111222' 
TCOON,ioos:station:TCOON:013:1,2019-09-08T19:24:00Z,27.4847,-97.3181,0.0,7.9,157.0,9.6,'11111222,11111222,11111222' 
TCOON,ioos:station:TCOON:013:1,2019-09-08T20:24:00Z,27.4847,-97.3181,0.0,7.1,142.0,10.1,'11111222,11111222,11111222' 
TCOON,ioos:station:TCOON:013:1,2019-09-08T21:24:00Z,27.4847,-97.3181,0.0,8.5,139.0,10.5,'11111222,11111222,11111222' 
TCOON,ioos:station:TCOON:013:1,2019-09-08T22:24:00Z,27.4847,-97.3181,0.0,8.1,138.0,10.6,'11111222,11111222,11111222' 
TCOON,ioos:station:TCOON:013:1,2019-09-08T23:24:00Z,27.4847,-97.3181,0.0,8.6,142.0,10.3,'11111222,11111222,11111222' 
TCOON,ioos:station:TCOON:013:1,2019-09-09T00:24:00Z,27.4847,-97.3181,0.0,7.7,139.0,9.0,'11111222,11111222,11111222' 
TCOON,ioos:station:TCOON:013:1,2019-09-09T01:24:00Z,27.4847,-97.3181,0.0,7.7,131.0,9.4,'11111222,11111222,11111222' 
TCOON,ioos:station:TCOON:013:1,2019-09-09T02:24:00Z,27.4847,-97.3181,0.0,5.9,135.0,7.2,'11111222,11111222,11111222' 
TCOON,ioos:station:TCOON:013:1,2019-09-09T03:24:00Z,27.4847,-97.3181,0.0,6.9,143.0,9.3,'11111222,11111222,11111222' 
TCOON,ioos:station:TCOON:013:1,2019-09-09T04:24:00Z,27.4847,-97.3181,0.0,5.3,144.0,7.7,'11111222,11111222,11111222' 
TCOON,ioos:station:TCOON:013:1,2019-09-09T05:24:00Z,27.4847,-97.3181,0.0,7.1,145.0,9.2,'11111222,11111222,11111222' 
TCOON,ioos:station:TCOON:013:1,2019-09-09T06:24:00Z,27.4847,-97.3181,0.0,6.5,149.0,9.4,'11111222,11111222,11111222' 
TCOON,ioos:station:TCOON:013:1,2019-09-09T07:24:00Z,27.4847,-97.3181,0.0,6.1,148.0,8.0,'11111222,11111222,11111222' 
TCOON,ioos:station:TCOON:013:1,2019-09-09T08:24:00Z,27.4847,-97.3181,0.0,6.4,152.0,8.0,'11111222,11111222,11111222' 
TCOON,ioos:station:TCOON:013:1,2019-09-09T09:24:00Z,27.4847,-97.3181,0.0,6.7,151.0,9.1,'11111222,11111222,11111222' 
TCOON,ioos:station:TCOON:013:1,2019-09-09T10:24:00Z,27.4847,-97.3181,0.0,6.0,149.0,8.0,'11111222,11111222,11111222' 
TCOON,ioos:station:TCOON:013:1,2019-09-09T11:24:00Z,27.4847,-97.3181,0.0,5.8,157.0,7.9,'11111222,11111222,11111222' 
TCOON,ioos:station:TCOON:013:1,2019-09-09T12:24:00Z,27.4847,-97.3181,0.0,5.9,149.0,7.4,'11111222,11111222,11111222' 
TCOON,ioos:station:TCOON:013:1,2019-09-09T13:24:00Z,27.4847,-97.3181,0.0,6.2,151.0,7.0,'11111222,11111222,11111222' 
TCOON,ioos:station:TCOON:013:1,2019-09-09T14:42:00Z,27.4847,-97.3181,0.0,6.5,152.0,7.9,'11111222,11111222,11111222' 